NOAA 16 DEB

Satellite information

Favourite Embed

Satellite Type and Status

DEBRISIN ORBIT

Key statistics

Satellite NOAA 16 DEB at a glance.

Uptime

9163

Days in orbit

Revolutions

≈ 14.2

Per day

Orbit

SSO

Sun Synchronous Orbit

Inclination

98.7

Latest

Satellite identification and parameters

Extended collection of information and parameters for NOAA 16 DEB.

Object identification

Identified? True

Debris? True

Object name: NOAA 16 DEB

International designator: 2000-055KF

Object number (NORAD): 41402

Object ID (CCSDS): 41402

Country: UNITED STATES OF AMERICA (US)

Current information (Y/N): Y

RCS size: SMALL

Orbital parameters

Period: 101.601 minutes

Inclination: 98.6981 deg

SMA: 7212.62 km

Apoapsis: 856.685 km

Periapsis: 812.285 km

RAAN: 322.6086 deg

Eccentricy: 0.0030779

Argument of periapsis: 213.1989 deg

Mean anomaly: 146.7255 deg

Mean motion: 14.17304585 rev/day

Mean motion (dot): 0.00004945 rev/day2

B* drag term: 0.0024554714 1/REarth

Two-line elements (TLE)

Creation date: Oct. 20, 2025, 6:08 p.m.

Reference frame: TEME

Reference center: EARTH

Epoch: Oct. 20, 2025, 12:53 p.m. UTC

TLE line 0: 0 NOAA 16 DEB

TLE line 1: 1 41402U 00055KF 25293.53705414 .00004945 00000-0 24555-2 0 9996

TLE line 2: 2 41402 98.6981 322.6086 0030779 213.1989 146.7255 14.17304585498403

Live tracking on map

Real-time ground track for satellite NOAA 16 DEB.

In-orbit conjunctions

A list of the most updated potential collisions computed for object NOAA 16 DEB.

Target Orbit TCA Probability of collision Miss distance Type
FENGYUN 1C DEB SSO 2025-05-30 20:48:20 0.000241537 98.0 (m) DEBRIS
SL-3 R/B LEO 2025-01-05 10:53:53 0.000147631 120.0 (m) ROCKET BODY
CZ-6A DEB LEO 2024-11-11 21:40:49 0.0001999622 940.0 (m) DEBRIS

Associated space launch

The NOAA K, L and M POES satellites begin the fifth generation of improved environmental monitoring in support of NOAA missions. The instrument payload has significant improvements and additions/deletions. The instrument changes have effected the spacecraft subsystems and data formats.

NOAA 16 DEB was lifted into orbit during the mission ‘Titan II SLV | NOAA 16’, on board a Titan II SLV space rocket.

The launch took place on Sept. 21, 2000, 10:22 a.m. from Space Launch Complex 4W.

For more information about the launch, click the button.

Launch to space Titan II SLV | NOAA 16
Titan II SLV | NOAA 16

Agency: N/A

Status: Launch Successful

Launch date: Sept. 21, 2000, 10:22 a.m. UTC

Rocket: Titan II SLV

Launch pad: Space Launch Complex 4W

Location: Vandenberg SFB, CA, USA

...

Latest news about this satellite

There are no fresh news available about this satellite. Check back as we update our databases every day.


Newsletter sign-up

Weekly statistics, charts and insights to help you stay on top of the space industry.